• In Hungary
  • List of Countries
  • For 7 days
  • Water Temperature
  • Satellite Maps
  • Weather Map
  • News
  • Weather Widgets
  • user-avatar
    Login

    Hourly Weather Ahmadabad

    Today, 20 November, Monday

    Time Temperature Precipitation Wind Pressure Humidity
    00:00 +24°C° 0 mm 3 mps 756 mmHg 37%
    01:00 +22°C° 0 mm 3 mps 756 mmHg 38%
    02:00 +22°C° 0 mm 3 mps 756 mmHg 38%
    03:00 +22°C° 0 mm 3 mps 756 mmHg 38%
    04:00 +21°C° 0 mm 3 mps 756 mmHg 38%
    05:00 +21°C° 0 mm 3 mps 756 mmHg 42%
    06:00 +22°C° 0 mm 3 mps 757 mmHg 41%
    07:00 +22°C° 0 mm 4 mps 757 mmHg 40%
    08:00 +23°C° 0 mm 4 mps 757 mmHg 39%
    09:00 +26°C° 0 mm 4 mps 757 mmHg 36%
    10:00 +29°C° 0 mm 4 mps 757 mmHg 33%
    11:00 +32°C° 0 mm 4 mps 758 mmHg 29%
    12:00 +31°C° 0 mm 3 mps 757 mmHg 27%
    13:00 +32°C° 0 mm 2 mps 756 mmHg 25%
    14:00 +34°C° 0 mm 2 mps 755 mmHg 23%
    15:00 +32°C° 0 mm 2 mps 755 mmHg 24%
    16:00 +31°C° 0 mm 2 mps 755 mmHg 26%
    17:00 +30°C° 0 mm 2 mps 755 mmHg 27%
    18:00 +29°C° 0 mm 2 mps 755 mmHg 27%
    19:00 +28°C° 0 mm 2 mps 755 mmHg 27%
    20:00 +27°C° 0 mm 3 mps 756 mmHg 27%
    21:00 +26°C° 0 mm 3 mps 756 mmHg 27%
    22:00 +26°C° 0 mm 3 mps 756 mmHg 28%
    23:00 +25°C° 0 mm 3 mps 756 mmHg 28%

    Tomorrow, 21 November, Tuesday

    Time Temperature Precipitation Wind Pressure Humidity
    00:00 +24°C° 0 mm 3 mps 756 mmHg 30%
    01:00 +24°C° 0 mm 3 mps 755 mmHg 31%
    02:00 +24°C° 0 mm 3 mps 755 mmHg 32%
    03:00 +22°C° 0 mm 3 mps 755 mmHg 34%
    04:00 +22°C° 0 mm 4 mps 755 mmHg 36%
    05:00 +22°C° 0 mm 4 mps 755 mmHg 38%
    06:00 +22°C° 0 mm 4 mps 756 mmHg 37%
    07:00 +23°C° 0 mm 5 mps 756 mmHg 35%
    08:00 +25°C° 0 mm 5 mps 756 mmHg 34%
    09:00 +27°C° 0 mm 5 mps 756 mmHg 31%
    10:00 +29°C° 0 mm 5 mps 757 mmHg 29%
    11:00 +32°C° 0 mm 5 mps 757 mmHg 26%
    12:00 +33°C° 0 mm 4 mps 756 mmHg 25%
    13:00 +34°C° 0 mm 3 mps 755 mmHg 25%
    14:00 +34°C° 0 mm 2 mps 754 mmHg 24%
    15:00 +34°C° 0 mm 2 mps 754 mmHg 26%
    16:00 +32°C° 0 mm 2 mps 754 mmHg 28%
    17:00 +31°C° 0 mm 1 mps 754 mmHg 30%
    18:00 +30°C° 0 mm 2 mps 754 mmHg 31%
    19:00 +29°C° 0 mm 2 mps 755 mmHg 32%
    20:00 +28°C° 0 mm 3 mps 755 mmHg 33%
    21:00 +27°C° 0 mm 3 mps 755 mmHg 33%
    22:00 +26°C° 0 mm 3 mps 755 mmHg 33%
    23:00 +26°C° 0 mm 3 mps 755 mmHg 33%

    Day after tomorrow, 22 November, Wednesday

    Time Temperature Precipitation Wind Pressure Humidity
    00:00 +25°C° 0 mm 3 mps 755 mmHg 33%
    01:00 +25°C° 0 mm 3 mps 754 mmHg 33%
    02:00 +24°C° 0 mm 3 mps 754 mmHg 33%
    03:00 +24°C° 0 mm 3 mps 754 mmHg 33%
    04:00 +24°C° 0 mm 3 mps 754 mmHg 33%
    05:00 +22°C° 0 mm 4 mps 754 mmHg 33%
    06:00 +23°C° 0 mm 4 mps 754 mmHg 32%
    07:00 +23°C° 0 mm 5 mps 755 mmHg 32%
    08:00 +25°C° 0 mm 5 mps 756 mmHg 31%
    09:00 +27°C° 0 mm 5 mps 756 mmHg 29%
    10:00 +29°C° 0 mm 5 mps 756 mmHg 26%
    11:00 +33°C° 0 mm 5 mps 756 mmHg 24%
    12:00 +33°C° 0 mm 4 mps 755 mmHg 24%
    13:00 +34°C° 0 mm 3 mps 754 mmHg 24%
    14:00 +35°C° 0 mm 2 mps 753 mmHg 24%
    15:00 +34°C° 0 mm 2 mps 753 mmHg 26%
    16:00 +32°C° 0 mm 2 mps 753 mmHg 27%
    17:00 +32°C° 0 mm 2 mps 753 mmHg 29%
    18:00 +30°C° 0 mm 2 mps 753 mmHg 29%
    19:00 +29°C° 0 mm 2 mps 754 mmHg 30%
    20:00 +28°C° 0 mm 3 mps 754 mmHg 30%
    21:00 +27°C° 0 mm 3 mps 754 mmHg 31%
    22:00 +27°C° 0 mm 3 mps 754 mmHg 32%
    23:00 +26°C° 0 mm 3 mps 755 mmHg 32%

    23 November, Thursday

    Time Temperature Precipitation Wind Pressure Humidity
    00:00 +25°C° 0 mm 3 mps 754 mmHg 33%
    01:00 +25°C° 0 mm 3 mps 754 mmHg 33%
    02:00 +24°C° 0 mm 3 mps 754 mmHg 34%
    03:00 +24°C° 0 mm 3 mps 753 mmHg 33%
    04:00 +24°C° 0 mm 3 mps 753 mmHg 33%
    05:00 +22°C° 0 mm 4 mps 753 mmHg 33%
    06:00 +23°C° 0 mm 4 mps 754 mmHg 31%
    07:00 +23°C° 0 mm 4 mps 754 mmHg 30%
    08:00 +25°C° 0 mm 5 mps 755 mmHg 29%
    09:00 +27°C° 0 mm 4 mps 755 mmHg 27%
    10:00 +30°C° 0 mm 4 mps 755 mmHg 25%
    11:00 +33°C° 0 mm 4 mps 755 mmHg 23%
    12:00 +34°C° 0 mm 3 mps 754 mmHg 23%
    13:00 +35°C° 0 mm 2 mps 753 mmHg 22%
    14:00 +34°C° 0 mm 1 mps 753 mmHg 22%
    15:00 +34°C° 0 mm 1 mps 753 mmHg 23%
    16:00 +33°C° 0 mm 1 mps 753 mmHg 25%
    17:00 +32°C° 0 mm 2 mps 752 mmHg 27%
    18:00 +31°C° 0 mm 2 mps 753 mmHg 27%
    19:00 +29°C° 0 mm 2 mps 754 mmHg 28%
    20:00 +28°C° 0 mm 2 mps 754 mmHg 29%
    21:00 +28°C° 0 mm 3 mps 754 mmHg 30%
    22:00 +27°C° 0 mm 3 mps 755 mmHg 30%
    23:00 +26°C° 0 mm 3 mps 755 mmHg 31%

    24 November, Friday

    Time Temperature Precipitation Wind Pressure Humidity
    00:00 +26°C° 0 mm 3 mps 754 mmHg 32%
    01:00 +25°C° 0 mm 3 mps 754 mmHg 32%
    02:00 +25°C° 0 mm 2 mps 754 mmHg 33%
    03:00 +24°C° 0 mm 2 mps 754 mmHg 33%
    04:00 +24°C° 0 mm 2 mps 754 mmHg 34%
    05:00 +24°C° 0 mm 2 mps 754 mmHg 35%
    06:00 +24°C° 0 mm 2 mps 755 mmHg 34%
    07:00 +25°C° 0 mm 3 mps 755 mmHg 33%
    08:00 +25°C° 0 mm 3 mps 756 mmHg 32%
    09:00 +28°C° 0 mm 3 mps 756 mmHg 29%
    10:00 +30°C° 0 mm 2 mps 756 mmHg 25%
    11:00 +32°C° 0 mm 2 mps 756 mmHg 22%
    12:00 +34°C° 0 mm 2 mps 755 mmHg 21%
    13:00 +35°C° 0 mm 2 mps 754 mmHg 21%
    14:00 +36°C° 0 mm 2 mps 754 mmHg 21%
    15:00 +35°C° 0 mm 2 mps 754 mmHg 23%
    16:00 +34°C° 0 mm 2 mps 754 mmHg 25%
    17:00 +32°C° 0 mm 2 mps 754 mmHg 27%
    18:00 +31°C° 0 mm 2 mps 754 mmHg 28%
    19:00 +29°C° 0 mm 3 mps 755 mmHg 30%
    20:00 +28°C° 0 mm 3 mps 755 mmHg 31%
    21:00 +27°C° 0 mm 3 mps 755 mmHg 30%
    22:00 +27°C° 0 mm 3 mps 755 mmHg 29%
    23:00 +26°C° 0 mm 3 mps 755 mmHg 29%

    25 November, Saturday

    Time Temperature Precipitation Wind Pressure Humidity
    00:00 +26°C° 0 mm 3 mps 755 mmHg 28%
    01:00 +25°C° 0 mm 2 mps 755 mmHg 27%
    02:00 +25°C° 0 mm 2 mps 754 mmHg 26%
    03:00 +24°C° 0 mm 2 mps 754 mmHg 26%
    04:00 +24°C° 0 mm 2 mps 755 mmHg 26%
    05:00 +24°C° 0 mm 2 mps 755 mmHg 27%
    06:00 +24°C° 0 mm 2 mps 755 mmHg 28%
    07:00 +25°C° 0 mm 2 mps 756 mmHg 29%
    08:00 +25°C° 0 mm 2 mps 757 mmHg 30%
    09:00 +28°C° 0 mm 2 mps 756 mmHg 27%
    10:00 +30°C° 0 mm 1 mps 756 mmHg 24%
    11:00 +32°C° 0 mm 1 mps 756 mmHg 21%
    12:00 +33°C° 0 mm 1 mps 756 mmHg 20%
    13:00 +35°C° 0 mm 2 mps 755 mmHg 19%
    14:00 +35°C° 0 mm 2 mps 754 mmHg 17%
    15:00 +34°C° 0 mm 2 mps 754 mmHg 18%
    16:00 +32°C° 0 mm 2 mps 754 mmHg 19%
    17:00 +31°C° 0 mm 2 mps 754 mmHg 20%
    18:00 +30°C° 0 mm 2 mps 755 mmHg 20%
    19:00 +29°C° 0 mm 2 mps 756 mmHg 19%
    20:00 +27°C° 0 mm 2 mps 756 mmHg 18%
    21:00 +27°C° 0 mm 2 mps 756 mmHg 18%
    22:00 +26°C° 0 mm 2 mps 756 mmHg 17%
    23:00 +25°C° 0 mm 2 mps 756 mmHg 17%
    Show more